Year,Month,Day,Hour,Minute,Value (Times are PST for temperature in C)
2016,06,04,00,00,16.80
2016,06,04,00,01,16.70
2016,06,04,00,02,16.70
2016,06,04,00,03,16.70
2016,06,04,00,04,16.70
2016,06,04,00,05,16.60
2016,06,04,00,06,16.60
2016,06,04,00,07,16.60
2016,06,04,00,08,16.60
2016,06,04,00,09,16.60
2016,06,04,00,10,16.40
2016,06,04,00,11,16.40
2016,06,04,00,12,16.40
2016,06,04,00,13,16.40
2016,06,04,00,14,16.40
2016,06,04,00,15,16.40
2016,06,04,00,16,16.40
2016,06,04,00,17,16.40
2016,06,04,00,18,16.40
2016,06,04,00,19,16.30
2016,06,04,00,20,16.30
2016,06,04,00,21,16.30
2016,06,04,00,22,16.30
2016,06,04,00,23,16.30
2016,06,04,00,24,16.30
2016,06,04,00,25,16.30
2016,06,04,00,26,16.30
2016,06,04,00,27,16.30
2016,06,04,00,28,16.30
2016,06,04,00,29,16.30
2016,06,04,00,30,16.20
2016,06,04,00,31,16.20
2016,06,04,00,32,16.20
2016,06,04,00,33,16.20
2016,06,04,00,34,16.20
2016,06,04,00,35,16.10
2016,06,04,00,36,16.10
2016,06,04,00,37,16.10
2016,06,04,00,38,16.10
2016,06,04,00,39,16.10
2016,06,04,00,40,16.10
2016,06,04,00,41,16.10
2016,06,04,00,42,16.10
2016,06,04,00,43,16.10
2016,06,04,00,44,16.00
2016,06,04,00,45,15.90
2016,06,04,00,46,15.90
2016,06,04,00,47,15.90
2016,06,04,00,48,15.90
2016,06,04,00,49,15.90
2016,06,04,00,50,15.90
2016,06,04,00,51,15.90
2016,06,04,00,52,15.80
2016,06,04,00,53,15.80
2016,06,04,00,54,15.80
2016,06,04,00,55,15.80
2016,06,04,00,56,15.80
2016,06,04,00,57,15.80
2016,06,04,00,58,15.80
2016,06,04,00,59,15.80
2016,06,04,01,00,15.80
2016,06,04,01,01,15.80
2016,06,04,01,02,15.80
2016,06,04,01,03,15.80
2016,06,04,01,04,15.80
2016,06,04,01,05,15.80
2016,06,04,01,06,15.70
2016,06,04,01,07,15.70
2016,06,04,01,08,15.70
2016,06,04,01,09,15.70
2016,06,04,01,10,15.60
2016,06,04,01,11,15.60
2016,06,04,01,12,15.60
2016,06,04,01,13,15.60
2016,06,04,01,14,15.60
2016,06,04,01,15,15.50
2016,06,04,01,16,15.50
2016,06,04,01,17,15.50
2016,06,04,01,18,15.50
2016,06,04,01,19,15.50
2016,06,04,01,20,15.40
2016,06,04,01,21,15.40
2016,06,04,01,22,15.40
2016,06,04,01,23,15.40
2016,06,04,01,24,15.40
2016,06,04,01,25,15.40
2016,06,04,01,26,15.30
2016,06,04,01,27,15.30
2016,06,04,01,28,15.30
2016,06,04,01,29,15.30
2016,06,04,01,30,15.30
2016,06,04,01,31,15.30
2016,06,04,01,32,15.30
2016,06,04,01,33,15.30
2016,06,04,01,34,15.30
2016,06,04,01,35,15.30
2016,06,04,01,36,15.30
2016,06,04,01,37,15.30
2016,06,04,01,38,15.30
2016,06,04,01,39,15.30
2016,06,04,01,40,15.30
2016,06,04,01,41,15.30
2016,06,04,01,42,15.30
2016,06,04,01,43,15.30
2016,06,04,01,44,15.30
2016,06,04,01,45,15.30
2016,06,04,01,46,15.30
2016,06,04,01,47,15.30
2016,06,04,01,48,15.30
2016,06,04,01,49,15.30
2016,06,04,01,50,15.30
2016,06,04,01,51,15.30
2016,06,04,01,52,15.30
2016,06,04,01,53,15.30
2016,06,04,01,54,15.30
2016,06,04,01,55,15.30
2016,06,04,01,56,15.30
2016,06,04,01,57,15.30
2016,06,04,01,58,15.30
2016,06,04,01,59,15.30
2016,06,04,02,00,15.30
2016,06,04,02,01,15.30
2016,06,04,02,02,15.30
2016,06,04,02,03,15.30
2016,06,04,02,04,15.30
2016,06,04,02,05,15.30
2016,06,04,02,06,15.30
2016,06,04,02,07,15.30
2016,06,04,02,08,15.30
2016,06,04,02,09,15.30
2016,06,04,02,10,15.30
2016,06,04,02,11,15.30
2016,06,04,02,12,15.30
2016,06,04,02,13,15.30
2016,06,04,02,14,15.30
2016,06,04,02,15,15.30
2016,06,04,02,16,15.30
2016,06,04,02,17,15.30
2016,06,04,02,18,15.30
2016,06,04,02,19,15.30
2016,06,04,02,20,15.30
2016,06,04,02,21,15.30
2016,06,04,02,22,15.30
2016,06,04,02,23,15.30
2016,06,04,02,24,15.30
2016,06,04,02,25,15.40
2016,06,04,02,26,15.30
2016,06,04,02,27,15.30
2016,06,04,02,28,15.30
2016,06,04,02,29,15.30
2016,06,04,02,30,15.30
2016,06,04,02,31,15.30
2016,06,04,02,32,15.30
2016,06,04,02,33,15.30
2016,06,04,02,34,15.30
2016,06,04,02,35,15.30
2016,06,04,02,36,15.30
2016,06,04,02,37,15.30
2016,06,04,02,38,15.30
2016,06,04,02,39,15.30
2016,06,04,02,40,15.20
2016,06,04,02,41,15.20
2016,06,04,02,42,15.10
2016,06,04,02,43,15.00
2016,06,04,02,44,15.00
2016,06,04,02,45,14.90
2016,06,04,02,46,14.80
2016,06,04,02,47,14.80
2016,06,04,02,48,14.80
2016,06,04,02,49,14.80
2016,06,04,02,50,14.80
2016,06,04,02,51,14.70
2016,06,04,02,52,14.70
2016,06,04,02,53,14.70
2016,06,04,02,54,14.70
2016,06,04,02,55,14.70
2016,06,04,02,56,14.70
2016,06,04,02,57,14.60
2016,06,04,02,58,14.60
2016,06,04,02,59,14.60
2016,06,04,03,00,14.60
2016,06,04,03,01,14.60
2016,06,04,03,02,14.60
2016,06,04,03,03,14.60
2016,06,04,03,04,14.50
2016,06,04,03,05,14.50
2016,06,04,03,06,14.50
2016,06,04,03,07,14.50
2016,06,04,03,08,14.50
2016,06,04,03,09,14.50
2016,06,04,03,10,14.50
2016,06,04,03,11,14.50
2016,06,04,03,12,14.50
2016,06,04,03,13,14.50
2016,06,04,03,14,14.40
2016,06,04,03,15,14.40
2016,06,04,03,16,14.40
2016,06,04,03,17,14.40
2016,06,04,03,18,14.40
2016,06,04,03,19,14.40
2016,06,04,03,20,14.40
2016,06,04,03,21,14.40
2016,06,04,03,22,14.30
2016,06,04,03,23,14.30
2016,06,04,03,24,14.30
2016,06,04,03,25,14.30
2016,06,04,03,26,14.30
2016,06,04,03,27,14.30
2016,06,04,03,28,14.40
2016,06,04,03,29,14.40
2016,06,04,03,30,14.40
2016,06,04,03,31,14.40
2016,06,04,03,32,14.40
2016,06,04,03,33,14.40
2016,06,04,03,34,14.40
2016,06,04,03,35,14.40
2016,06,04,03,36,14.40
2016,06,04,03,37,14.30
2016,06,04,03,38,14.30
2016,06,04,03,39,14.30
2016,06,04,03,40,14.30
2016,06,04,03,41,14.30
2016,06,04,03,42,14.30
2016,06,04,03,43,14.30
2016,06,04,03,44,14.30
2016,06,04,03,45,14.30
2016,06,04,03,46,14.30
2016,06,04,03,47,14.30
2016,06,04,03,48,14.30
2016,06,04,03,49,14.20
2016,06,04,03,50,14.20
2016,06,04,03,51,14.20
2016,06,04,03,52,14.20
2016,06,04,03,53,14.20
2016,06,04,03,54,14.20
2016,06,04,03,55,14.20
2016,06,04,03,56,14.20
2016,06,04,03,57,14.20
2016,06,04,03,58,14.20
2016,06,04,03,59,14.20
2016,06,04,04,00,14.20
2016,06,04,04,01,14.20
2016,06,04,04,02,14.20
2016,06,04,04,03,14.20
2016,06,04,04,04,14.20
2016,06,04,04,05,14.20
2016,06,04,04,06,14.20
2016,06,04,04,07,14.20
2016,06,04,04,08,14.20
2016,06,04,04,09,14.20
2016,06,04,04,10,14.10
2016,06,04,04,11,14.10
2016,06,04,04,12,14.10
2016,06,04,04,13,14.10
2016,06,04,04,14,14.10
2016,06,04,04,15,14.10
2016,06,04,04,16,14.10
2016,06,04,04,17,14.10
2016,06,04,04,18,14.10
2016,06,04,04,19,14.10
2016,06,04,04,20,14.00
2016,06,04,04,21,14.00
2016,06,04,04,22,14.00
2016,06,04,04,23,14.00
2016,06,04,04,24,14.00
2016,06,04,04,25,14.00
2016,06,04,04,26,14.00
2016,06,04,04,27,14.00
2016,06,04,04,28,14.00
2016,06,04,04,29,14.00
2016,06,04,04,30,13.90
2016,06,04,04,31,13.90
2016,06,04,04,32,13.90
2016,06,04,04,33,13.90
2016,06,04,04,34,13.90
2016,06,04,04,35,13.90
2016,06,04,04,36,13.90
2016,06,04,04,37,13.90
2016,06,04,04,38,13.90
2016,06,04,04,39,13.90
2016,06,04,04,40,13.90
2016,06,04,04,41,13.90
2016,06,04,04,42,13.80
2016,06,04,04,43,13.80
2016,06,04,04,44,13.80
2016,06,04,04,45,13.80
2016,06,04,04,46,13.80
2016,06,04,04,47,13.80
2016,06,04,04,48,13.80
2016,06,04,04,49,13.80
2016,06,04,04,50,13.80
2016,06,04,04,51,13.80
2016,06,04,04,52,13.80
2016,06,04,04,53,13.80
2016,06,04,04,54,13.80
2016,06,04,04,55,13.80
2016,06,04,04,56,13.80
2016,06,04,04,57,13.70
2016,06,04,04,58,13.70
2016,06,04,04,59,13.70
2016,06,04,05,00,13.70
2016,06,04,05,01,13.70
2016,06,04,05,02,13.70
2016,06,04,05,03,13.70
2016,06,04,05,04,13.70
2016,06,04,05,05,13.70
2016,06,04,05,06,13.70
2016,06,04,05,07,13.70
2016,06,04,05,08,13.70
2016,06,04,05,09,13.70
2016,06,04,05,10,13.70
2016,06,04,05,11,13.70
2016,06,04,05,12,13.70
2016,06,04,05,13,13.70
2016,06,04,05,14,13.70
2016,06,04,05,15,13.70
2016,06,04,05,16,13.70
2016,06,04,05,17,13.70
2016,06,04,05,18,13.70
2016,06,04,05,19,13.70
2016,06,04,05,20,13.70
2016,06,04,05,21,13.70
2016,06,04,05,22,13.70
2016,06,04,05,23,13.70
2016,06,04,05,24,13.70
2016,06,04,05,25,13.70
2016,06,04,05,26,13.70
2016,06,04,05,27,13.70
2016,06,04,05,28,13.70
2016,06,04,05,29,13.70
2016,06,04,05,30,13.70
2016,06,04,05,31,13.70
2016,06,04,05,32,13.70
2016,06,04,05,33,13.70
2016,06,04,05,34,13.70
2016,06,04,05,35,13.70
2016,06,04,05,36,13.70
2016,06,04,05,37,13.70
2016,06,04,05,38,13.70
2016,06,04,05,39,13.70
2016,06,04,05,40,13.70
2016,06,04,05,41,13.70
2016,06,04,05,42,13.70
2016,06,04,05,43,13.70
2016,06,04,05,44,13.70
2016,06,04,05,45,13.70
2016,06,04,05,46,13.70
2016,06,04,05,47,13.80
2016,06,04,05,48,13.80
2016,06,04,05,49,13.80
2016,06,04,05,50,13.80
2016,06,04,05,51,13.80
2016,06,04,05,52,13.80
2016,06,04,05,53,13.80
2016,06,04,05,54,13.80
2016,06,04,05,55,13.80
2016,06,04,05,56,13.80
2016,06,04,05,57,13.80
2016,06,04,05,58,13.80
2016,06,04,05,59,13.80
2016,06,04,06,00,13.80
2016,06,04,06,01,13.80
2016,06,04,06,02,13.80
2016,06,04,06,03,13.80
2016,06,04,06,04,13.80
2016,06,04,06,05,13.80
2016,06,04,06,06,13.80
2016,06,04,06,07,13.80
2016,06,04,06,08,13.80
2016,06,04,06,09,13.80
2016,06,04,06,10,13.90
2016,06,04,06,11,13.90
2016,06,04,06,12,13.90
2016,06,04,06,13,14.00
2016,06,04,06,14,14.00
2016,06,04,06,15,14.10
2016,06,04,06,16,14.10
2016,06,04,06,17,14.20
2016,06,04,06,18,14.20
2016,06,04,06,19,14.20
2016,06,04,06,20,14.30
2016,06,04,06,21,14.30
2016,06,04,06,22,14.40
2016,06,04,06,23,14.40
2016,06,04,06,24,14.40
2016,06,04,06,25,14.40
2016,06,04,06,26,14.40
2016,06,04,06,27,14.40
2016,06,04,06,28,14.50
2016,06,04,06,29,14.50
2016,06,04,06,30,14.40
2016,06,04,06,31,14.40
2016,06,04,06,32,14.40
2016,06,04,06,33,14.40
2016,06,04,06,34,14.40
2016,06,04,06,35,14.40
2016,06,04,06,36,14.40
2016,06,04,06,37,14.40
2016,06,04,06,38,14.40
2016,06,04,06,39,14.40
2016,06,04,06,40,14.40
2016,06,04,06,41,14.40
2016,06,04,06,42,14.40
2016,06,04,06,43,14.50
2016,06,04,06,44,14.50
2016,06,04,06,45,14.50
2016,06,04,06,46,14.50
2016,06,04,06,47,14.50
2016,06,04,06,48,14.60
2016,06,04,06,49,14.60
2016,06,04,06,50,14.60
2016,06,04,06,51,14.60
2016,06,04,06,52,14.60
2016,06,04,06,53,14.60
2016,06,04,06,54,14.70
2016,06,04,06,55,14.70
2016,06,04,06,56,14.70
2016,06,04,06,57,14.80
2016,06,04,06,58,14.80
2016,06,04,06,59,14.80
2016,06,04,07,00,14.80
2016,06,04,07,01,14.90
2016,06,04,07,02,15.00
2016,06,04,07,03,15.00
2016,06,04,07,04,15.10
2016,06,04,07,05,15.20
2016,06,04,07,06,15.30
2016,06,04,07,07,15.40
2016,06,04,07,08,15.50
2016,06,04,07,09,15.60
2016,06,04,07,10,15.70
2016,06,04,07,11,15.70
2016,06,04,07,12,15.80
2016,06,04,07,13,15.80
2016,06,04,07,14,15.80
2016,06,04,07,15,15.80
2016,06,04,07,16,15.90
2016,06,04,07,17,16.00
2016,06,04,07,18,16.10
2016,06,04,07,19,16.10
2016,06,04,07,20,16.10
2016,06,04,07,21,16.20
2016,06,04,07,22,16.30
2016,06,04,07,23,16.30
2016,06,04,07,24,16.30
2016,06,04,07,25,16.30
2016,06,04,07,26,16.30
2016,06,04,07,27,16.30
2016,06,04,07,28,16.30
2016,06,04,07,29,16.20
2016,06,04,07,30,16.20
2016,06,04,07,31,16.20
2016,06,04,07,32,16.20
2016,06,04,07,33,16.20
2016,06,04,07,34,16.30
2016,06,04,07,35,16.30
2016,06,04,07,36,16.40
2016,06,04,07,37,16.40
2016,06,04,07,38,16.40
2016,06,04,07,39,16.50
2016,06,04,07,40,16.60
2016,06,04,07,41,16.70
2016,06,04,07,42,16.70
2016,06,04,07,43,16.70
2016,06,04,07,44,16.70
2016,06,04,07,45,16.70
2016,06,04,07,46,16.70
2016,06,04,07,47,16.70
2016,06,04,07,48,16.70
2016,06,04,07,49,16.80
2016,06,04,07,50,16.70
2016,06,04,07,51,16.70
2016,06,04,07,52,16.70
2016,06,04,07,53,16.70
2016,06,04,07,54,16.60
2016,06,04,07,55,16.50
2016,06,04,07,56,16.40
2016,06,04,07,57,16.40
2016,06,04,07,58,16.40
2016,06,04,07,59,16.40
2016,06,04,08,00,16.40
2016,06,04,08,01,16.40
2016,06,04,08,02,16.60
2016,06,04,08,03,16.60
2016,06,04,08,04,16.70
2016,06,04,08,05,16.70
2016,06,04,08,06,16.80
2016,06,04,08,07,16.80
2016,06,04,08,08,16.90
2016,06,04,08,09,16.90
2016,06,04,08,10,17.00
2016,06,04,08,11,17.10
2016,06,04,08,12,17.20
2016,06,04,08,13,17.30
2016,06,04,08,14,17.40
2016,06,04,08,15,17.50
2016,06,04,08,16,17.60
2016,06,04,08,17,17.70
2016,06,04,08,18,17.80
2016,06,04,08,19,17.80
2016,06,04,08,20,17.90
2016,06,04,08,21,18.00
2016,06,04,08,22,18.10
2016,06,04,08,23,18.20
2016,06,04,08,24,18.20
2016,06,04,08,25,18.20
2016,06,04,08,26,18.30
2016,06,04,08,27,18.40
2016,06,04,08,28,18.50
2016,06,04,08,29,18.60
2016,06,04,08,30,18.70
2016,06,04,08,31,18.70
2016,06,04,08,32,18.80
2016,06,04,08,33,18.80
2016,06,04,08,34,18.90
2016,06,04,08,35,18.90
2016,06,04,08,36,18.90
2016,06,04,08,37,18.90
2016,06,04,08,38,19.10
2016,06,04,08,39,19.10
2016,06,04,08,40,19.10
2016,06,04,08,41,19.10
2016,06,04,08,42,19.00
2016,06,04,08,43,18.90
2016,06,04,08,44,18.90
2016,06,04,08,45,18.90
2016,06,04,08,46,18.90
2016,06,04,08,47,18.90
2016,06,04,08,48,18.90
2016,06,04,08,49,18.90
2016,06,04,08,50,18.90
2016,06,04,08,51,18.90
2016,06,04,08,52,18.90
2016,06,04,08,53,18.80
2016,06,04,08,54,18.70
2016,06,04,08,55,18.70
2016,06,04,08,56,18.70
2016,06,04,08,57,18.60
2016,06,04,08,58,18.60
2016,06,04,08,59,18.60
2016,06,04,09,00,18.60
2016,06,04,09,01,18.50
2016,06,04,09,02,18.50
2016,06,04,09,03,18.40
2016,06,04,09,04,18.30
2016,06,04,09,05,18.30
2016,06,04,09,06,18.30
2016,06,04,09,07,18.30
2016,06,04,09,08,18.30
2016,06,04,09,09,18.30
2016,06,04,09,10,18.50
2016,06,04,09,11,18.50
2016,06,04,09,12,18.50
2016,06,04,09,13,18.40
2016,06,04,09,14,18.30
2016,06,04,09,15,18.20
2016,06,04,09,16,18.30
2016,06,04,09,17,18.40
2016,06,04,09,18,18.40
2016,06,04,09,19,18.40
2016,06,04,09,20,18.30
2016,06,04,09,21,18.30
2016,06,04,09,22,18.40
2016,06,04,09,23,18.60
2016,06,04,09,24,18.70
2016,06,04,09,25,18.80
2016,06,04,09,26,18.80
2016,06,04,09,27,18.80
2016,06,04,09,28,18.90
2016,06,04,09,29,18.90
2016,06,04,09,30,18.90
2016,06,04,09,31,19.00
2016,06,04,09,32,19.10
2016,06,04,09,33,19.10
2016,06,04,09,34,19.10
2016,06,04,09,35,19.10
2016,06,04,09,36,19.10
2016,06,04,09,37,19.20
2016,06,04,09,38,19.20
2016,06,04,09,39,19.20
2016,06,04,09,40,19.30
2016,06,04,09,41,19.30
2016,06,04,09,42,19.30
2016,06,04,09,43,19.40
2016,06,04,09,44,19.40
2016,06,04,09,45,19.50
2016,06,04,09,46,19.50
2016,06,04,09,47,19.60
2016,06,04,09,48,19.70
2016,06,04,09,49,19.70
2016,06,04,09,50,19.80
2016,06,04,09,51,19.80
2016,06,04,09,52,19.90
2016,06,04,09,53,20.10
2016,06,04,09,54,20.20
2016,06,04,09,55,20.20
2016,06,04,09,56,20.30
2016,06,04,09,57,20.30
2016,06,04,09,58,20.50
2016,06,04,09,59,20.50
2016,06,04,10,00,20.50
2016,06,04,10,01,20.60
2016,06,04,10,02,20.60
2016,06,04,10,03,20.70
2016,06,04,10,04,20.90
2016,06,04,10,05,21.00
2016,06,04,10,06,21.00
2016,06,04,10,07,21.00
2016,06,04,10,08,21.00
2016,06,04,10,09,21.10
2016,06,04,10,10,21.20
2016,06,04,10,11,21.30
2016,06,04,10,12,21.30
2016,06,04,10,13,21.40
2016,06,04,10,14,21.40
2016,06,04,10,15,21.50
2016,06,04,10,16,21.60
2016,06,04,10,17,21.60
2016,06,04,10,18,21.70
2016,06,04,10,19,21.80
2016,06,04,10,20,21.90
2016,06,04,10,21,22.00
2016,06,04,10,22,22.00
2016,06,04,10,23,22.10
2016,06,04,10,24,22.20
2016,06,04,10,25,22.20
2016,06,04,10,26,22.30
2016,06,04,10,27,22.40
2016,06,04,10,28,22.50
2016,06,04,10,29,22.50
2016,06,04,10,30,22.60
2016,06,04,10,31,22.60
2016,06,04,10,32,22.70
2016,06,04,10,33,22.70
2016,06,04,10,34,22.70
2016,06,04,10,35,22.80
2016,06,04,10,36,22.80
2016,06,04,10,37,22.80
2016,06,04,10,38,22.90
2016,06,04,10,39,23.00
2016,06,04,10,40,23.10
2016,06,04,10,41,23.10
2016,06,04,10,42,23.10
2016,06,04,10,43,23.10
2016,06,04,10,44,23.10
2016,06,04,10,45,23.10
2016,06,04,10,46,23.10
2016,06,04,10,47,23.20
2016,06,04,10,48,23.30
2016,06,04,10,49,23.30
2016,06,04,10,50,23.30
2016,06,04,10,51,23.40
2016,06,04,10,52,23.40
2016,06,04,10,53,23.40
2016,06,04,10,54,23.40
2016,06,04,10,55,23.40
2016,06,04,10,56,23.40
2016,06,04,10,57,23.30
2016,06,04,10,58,23.30
2016,06,04,10,59,23.30
2016,06,04,11,00,23.30
2016,06,04,11,01,23.30
2016,06,04,11,02,23.30
2016,06,04,11,03,23.30
2016,06,04,11,04,23.30
2016,06,04,11,05,23.30
2016,06,04,11,06,23.40
2016,06,04,11,07,23.50
2016,06,04,11,08,23.60
2016,06,04,11,09,23.40
2016,06,04,11,10,23.40
2016,06,04,11,11,23.40
2016,06,04,11,12,23.40
2016,06,04,11,13,23.50
2016,06,04,11,14,23.60
2016,06,04,11,15,23.70
2016,06,04,11,16,23.70
2016,06,04,11,17,23.70
2016,06,04,11,18,23.80
2016,06,04,11,19,23.80
2016,06,04,11,20,23.80
2016,06,04,11,21,23.80
2016,06,04,11,22,23.80
2016,06,04,11,23,23.80
2016,06,04,11,24,23.70
2016,06,04,11,25,23.70
2016,06,04,11,26,23.80
2016,06,04,11,27,23.80
2016,06,04,11,28,23.90
2016,06,04,11,29,24.00
2016,06,04,11,30,24.10
2016,06,04,11,31,24.20
2016,06,04,11,32,24.20
2016,06,04,11,33,24.20
2016,06,04,11,34,24.10
2016,06,04,11,35,24.10
2016,06,04,11,36,24.10
2016,06,04,11,37,24.10
2016,06,04,11,38,24.10
2016,06,04,11,39,24.10
2016,06,04,11,40,24.10
2016,06,04,11,41,24.30
2016,06,04,11,42,24.30
2016,06,04,11,43,24.40
2016,06,04,11,44,24.40
2016,06,04,11,45,24.40
2016,06,04,11,46,24.40
2016,06,04,11,47,24.40
2016,06,04,11,48,24.40
2016,06,04,11,49,24.50
2016,06,04,11,50,24.50
2016,06,04,11,51,24.50
2016,06,04,11,52,24.50
2016,06,04,11,53,24.50
2016,06,04,11,54,24.50
2016,06,04,11,55,24.50
2016,06,04,11,56,24.50
2016,06,04,11,57,24.50
2016,06,04,11,58,24.40
2016,06,04,11,59,24.40
2016,06,04,12,00,24.30
2016,06,04,12,01,24.20
2016,06,04,12,02,24.20
2016,06,04,12,03,24.20
2016,06,04,12,04,24.20
2016,06,04,12,05,24.20
2016,06,04,12,06,24.30
2016,06,04,12,07,24.30
2016,06,04,12,08,24.30
2016,06,04,12,09,24.30
2016,06,04,12,10,24.40
2016,06,04,12,11,24.40
2016,06,04,12,12,24.40
2016,06,04,12,13,24.30
2016,06,04,12,14,24.30
2016,06,04,12,15,24.30
2016,06,04,12,16,24.20
2016,06,04,12,17,24.10
2016,06,04,12,18,24.10
2016,06,04,12,19,24.10
2016,06,04,12,20,24.10
2016,06,04,12,21,24.10
2016,06,04,12,22,24.10
2016,06,04,12,23,24.10
2016,06,04,12,24,24.10
2016,06,04,12,25,24.10
2016,06,04,12,26,24.10
2016,06,04,12,27,24.10
2016,06,04,12,28,24.10
2016,06,04,12,29,24.10
2016,06,04,12,30,24.10
2016,06,04,12,31,24.10
2016,06,04,12,32,24.10
2016,06,04,12,33,24.10
2016,06,04,12,34,24.10
2016,06,04,12,35,24.10
2016,06,04,12,36,24.10
2016,06,04,12,37,24.20
2016,06,04,12,38,24.20
2016,06,04,12,39,24.30
2016,06,04,12,40,24.30
2016,06,04,12,41,24.20
2016,06,04,12,42,24.20
2016,06,04,12,43,24.30
2016,06,04,12,44,24.30
2016,06,04,12,45,24.30
2016,06,04,12,46,24.30
2016,06,04,12,47,24.30
2016,06,04,12,48,24.40
2016,06,04,12,49,24.40
2016,06,04,12,50,24.50
2016,06,04,12,51,24.50
2016,06,04,12,52,24.60
2016,06,04,12,53,24.70
2016,06,04,12,54,24.80
2016,06,04,12,55,24.80
2016,06,04,12,56,24.80
2016,06,04,12,57,24.80
2016,06,04,12,58,24.80
2016,06,04,12,59,24.90
2016,06,04,13,00,24.90
2016,06,04,13,01,25.00
2016,06,04,13,02,25.10
2016,06,04,13,03,25.20
2016,06,04,13,04,25.30
2016,06,04,13,05,25.40
2016,06,04,13,06,25.40
2016,06,04,13,07,25.50
2016,06,04,13,08,25.60
2016,06,04,13,09,25.60
2016,06,04,13,10,25.60
2016,06,04,13,11,25.60
2016,06,04,13,12,25.70
2016,06,04,13,13,25.70
2016,06,04,13,14,25.70
2016,06,04,13,15,25.70
2016,06,04,13,16,25.70
2016,06,04,13,17,25.60
2016,06,04,13,18,25.60
2016,06,04,13,19,25.50
2016,06,04,13,20,25.40
2016,06,04,13,21,25.40
2016,06,04,13,22,25.40
2016,06,04,13,23,25.40
2016,06,04,13,24,25.50
2016,06,04,13,25,25.60
2016,06,04,13,26,25.60
2016,06,04,13,27,25.70
2016,06,04,13,28,25.80
2016,06,04,13,29,25.80
2016,06,04,13,30,25.80
2016,06,04,13,31,25.80
2016,06,04,13,32,25.60
2016,06,04,13,33,25.60
2016,06,04,13,34,25.50
2016,06,04,13,35,25.50
2016,06,04,13,36,25.50
2016,06,04,13,37,25.50
2016,06,04,13,38,25.50
2016,06,04,13,39,25.50
2016,06,04,13,40,25.50
2016,06,04,13,41,25.50
2016,06,04,13,42,25.40
2016,06,04,13,43,25.40
2016,06,04,13,44,25.40
2016,06,04,13,45,25.40
2016,06,04,13,46,25.40
2016,06,04,13,47,25.40
2016,06,04,13,48,25.50
2016,06,04,13,49,25.50
2016,06,04,13,50,25.40
2016,06,04,13,51,25.30
2016,06,04,13,52,25.00
2016,06,04,13,53,24.90
2016,06,04,13,54,24.60
2016,06,04,13,55,24.30
2016,06,04,13,56,24.00
2016,06,04,13,57,23.60
2016,06,04,13,58,23.20
2016,06,04,13,59,22.90
2016,06,04,14,00,22.60
2016,06,04,14,01,22.40
2016,06,04,14,02,22.30
2016,06,04,14,03,22.30
2016,06,04,14,04,22.30
2016,06,04,14,05,22.30
2016,06,04,14,06,22.30
2016,06,04,14,07,22.40
2016,06,04,14,08,22.50
2016,06,04,14,09,22.60
2016,06,04,14,10,22.70
2016,06,04,14,11,22.80
2016,06,04,14,12,22.90
2016,06,04,14,13,23.00
2016,06,04,14,14,23.10
2016,06,04,14,15,23.30
2016,06,04,14,16,23.40
2016,06,04,14,17,23.50
2016,06,04,14,18,23.60
2016,06,04,14,19,23.70
2016,06,04,14,20,23.80
2016,06,04,14,21,23.80
2016,06,04,14,22,23.80
2016,06,04,14,23,23.70
2016,06,04,14,24,23.70
2016,06,04,14,25,23.70
2016,06,04,14,26,23.60
2016,06,04,14,27,23.60
2016,06,04,14,28,23.50
2016,06,04,14,29,23.40
2016,06,04,14,30,23.30
2016,06,04,14,31,23.30
2016,06,04,14,32,23.30
2016,06,04,14,33,23.30
2016,06,04,14,34,23.50
2016,06,04,14,35,23.70
2016,06,04,14,36,23.60
2016,06,04,14,37,23.60
2016,06,04,14,38,23.50
2016,06,04,14,39,23.40
2016,06,04,14,40,23.40
2016,06,04,14,41,23.30
2016,06,04,14,42,23.30
2016,06,04,14,43,23.40
2016,06,04,14,44,23.60
2016,06,04,14,45,23.70
2016,06,04,14,46,23.80
2016,06,04,14,47,24.00
2016,06,04,14,48,24.20
2016,06,04,14,49,24.30
2016,06,04,14,50,24.50
2016,06,04,14,51,24.60
2016,06,04,14,52,24.70
2016,06,04,14,53,24.80
2016,06,04,14,54,24.80
2016,06,04,14,55,24.90
2016,06,04,14,56,24.90
2016,06,04,14,57,25.00
2016,06,04,14,58,25.10
2016,06,04,14,59,25.20
2016,06,04,15,00,25.30
2016,06,04,15,01,25.30
2016,06,04,15,02,25.30
2016,06,04,15,03,25.20
2016,06,04,15,04,25.20
2016,06,04,15,05,25.20
2016,06,04,15,06,25.30
2016,06,04,15,07,25.30
2016,06,04,15,08,25.40
2016,06,04,15,09,25.40
2016,06,04,15,10,25.50
2016,06,04,15,11,25.60
2016,06,04,15,12,25.60
2016,06,04,15,13,25.60
2016,06,04,15,14,25.70
2016,06,04,15,15,25.70
2016,06,04,15,16,25.70
2016,06,04,15,17,25.70
2016,06,04,15,18,25.60
2016,06,04,15,19,25.50
2016,06,04,15,20,25.40
2016,06,04,15,21,25.30
2016,06,04,15,22,25.30
2016,06,04,15,23,25.40
2016,06,04,15,24,25.40
2016,06,04,15,25,25.50
2016,06,04,15,26,25.50
2016,06,04,15,27,25.50
2016,06,04,15,28,25.50
2016,06,04,15,29,25.50
2016,06,04,15,30,25.40
2016,06,04,15,31,25.40
2016,06,04,15,32,25.40
2016,06,04,15,33,25.40
2016,06,04,15,34,25.40
2016,06,04,15,35,25.40
2016,06,04,15,36,25.50
2016,06,04,15,37,25.50
2016,06,04,15,38,25.50
2016,06,04,15,39,25.50
2016,06,04,15,40,25.50
2016,06,04,15,41,25.60
2016,06,04,15,42,25.60
2016,06,04,15,43,25.60
2016,06,04,15,44,25.40
2016,06,04,15,45,25.30
2016,06,04,15,46,25.20
2016,06,04,15,47,25.10
2016,06,04,15,48,25.10
2016,06,04,15,49,25.20
2016,06,04,15,50,25.20
2016,06,04,15,51,25.20
2016,06,04,15,52,25.20
2016,06,04,15,53,25.30
2016,06,04,15,54,25.30
2016,06,04,15,55,25.30
2016,06,04,15,56,25.40
2016,06,04,15,57,25.40
2016,06,04,15,58,25.40
2016,06,04,15,59,25.40
2016,06,04,16,00,25.50
2016,06,04,16,01,25.50
2016,06,04,16,02,25.60
2016,06,04,16,03,25.60
2016,06,04,16,04,25.60
2016,06,04,16,05,25.60
2016,06,04,16,06,25.60
2016,06,04,16,07,25.60
2016,06,04,16,08,25.60
2016,06,04,16,09,25.50
2016,06,04,16,10,25.40
2016,06,04,16,11,25.30
2016,06,04,16,12,25.30
2016,06,04,16,13,25.10
2016,06,04,16,14,24.90
2016,06,04,16,15,24.70
2016,06,04,16,16,24.40
2016,06,04,16,17,24.10
2016,06,04,16,18,23.90
2016,06,04,16,19,23.70
2016,06,04,16,20,23.60
2016,06,04,16,21,23.40
2016,06,04,16,22,23.30
2016,06,04,16,23,23.20
2016,06,04,16,24,23.10
2016,06,04,16,25,23.10
2016,06,04,16,26,23.10
2016,06,04,16,27,23.10
2016,06,04,16,28,23.10
2016,06,04,16,29,23.10
2016,06,04,16,30,23.20
2016,06,04,16,31,23.20
2016,06,04,16,32,23.30
2016,06,04,16,33,23.30
2016,06,04,16,34,23.30
2016,06,04,16,35,23.30
2016,06,04,16,36,23.30
2016,06,04,16,37,23.30
2016,06,04,16,38,23.30
2016,06,04,16,39,23.30
2016,06,04,16,40,23.30
2016,06,04,16,41,23.30
2016,06,04,16,42,23.40
2016,06,04,16,43,23.40
2016,06,04,16,44,23.50
2016,06,04,16,45,23.60
2016,06,04,16,46,23.60
2016,06,04,16,47,23.60
2016,06,04,16,48,23.60
2016,06,04,16,49,23.70
2016,06,04,16,50,23.60
2016,06,04,16,51,23.60
2016,06,04,16,52,23.60
2016,06,04,16,53,23.60
2016,06,04,16,54,23.60
2016,06,04,16,55,23.70
2016,06,04,16,56,23.70
2016,06,04,16,57,23.70
2016,06,04,16,58,23.80
2016,06,04,16,59,23.80
2016,06,04,17,00,23.80
2016,06,04,17,01,23.70
2016,06,04,17,02,23.70
2016,06,04,17,03,23.70
2016,06,04,17,04,23.60
2016,06,04,17,05,23.50
2016,06,04,17,06,23.40
2016,06,04,17,07,23.30
2016,06,04,17,08,23.30
2016,06,04,17,09,23.20
2016,06,04,17,10,23.20
2016,06,04,17,11,23.20
2016,06,04,17,12,23.20
2016,06,04,17,13,23.30
2016,06,04,17,14,23.30
2016,06,04,17,15,23.30
2016,06,04,17,16,23.30
2016,06,04,17,17,23.40
2016,06,04,17,18,23.50
2016,06,04,17,19,23.60